Home > Weather > Syktyvkar > Past weeks

Flag for Russia Weather for the Past 2 Weeks in Syktyvkar, Russia

Now
23 °F

Partly cloudy.


Feels Like: 12 °F
Forecast: 21 / 29 °F
Wind: 10 mph from South

Location: Syktyvkar Airport

Current Time: Feb 9, 2016 at 2:54:10 AM

Latest Report: Feb 9, 2016 at 2:00 AM


Visibility: 6 mi

Pressure: 29.89 "Hg

Humidity: 93%

Dew point: 21 °F

Location of SyktyvkarLocation

Historic Weather in Syktyvkar — Graph

°F

Syktyvkar Temperature Yesterday

Maximum temperature yesterday: 23 °F (at 11:00 PM)
Minimum temperature yesterday: 16 °F (at 12:00 AM)
Average temperature yesterday: 19 °F

High & Low Weather Summary for the Past Weeks

 TemperatureHumidityPressure
High34 °F (Jan 31, 6:30 PM)100% (Feb 5, 4:30 AM)30.27 "Hg (Feb 5, 4:30 AM)
Low-24 °F (Jan 26, 2:00 AM)68% (Jan 26, 1:30 AM)29.24 "Hg (Feb 4, 2:00 AM)
Average16 °F83%29.70 "Hg
* Reported Jan 25 1:00 AM — Feb 9 1:00 AM, Syktyvkar, Weather by CustomWeather, © 2016

Note: Actual official high and low records may vary slightly from our data, if they occured in-between our weather recording intervals... More about our weather records

Advertising

Syktyvkar Weather History for the Previous 24 Hours

 ConditionsComfort  
Time TempWeatherWind HumidityBarometerVisibility
1:00 AM
Tue, Feb 9
23 °FPartly cloudy.8 mph93%29.89 "HgN/A
12:00 AM23 °FPartly cloudy.8 mph93%29.92 "Hg6 mi
11:30 PM
Mon, Feb 8
23 °FPartly cloudy.8 mph86%29.92 "Hg6 mi
11:00 PM23 °FPassing clouds.10 mph86%29.92 "HgN/A
10:30 PM21 °FPassing clouds.8 mph93%29.92 "HgN/A
10:00 PM21 °FSnow flurries. Partly cloudy.10 mph93%29.92 "Hg1 mi
9:30 PM21 °FSnow showers. Partly cloudy.10 mph93%29.95 "Hg1 mi
9:00 PM21 °FSnow flurries. Passing clouds.10 mph86%29.95 "Hg6 mi
8:30 PM21 °FPassing clouds.10 mph86%29.95 "HgN/A
8:00 PM21 °FPartly cloudy.10 mph86%29.95 "Hg6 mi
7:30 PM21 °FPartly cloudy.8 mph86%29.95 "HgN/A
7:00 PM21 °FPartly cloudy.8 mph86%29.95 "HgN/A
6:30 PM21 °FPartly cloudy.10 mph86%29.95 "HgN/A
6:00 PM21 °FPassing clouds.8 mph86%29.95 "HgN/A
5:30 PM21 °FPassing clouds.8 mph86%29.95 "HgN/A
5:00 PM21 °FPassing clouds.8 mph86%29.95 "HgN/A
4:30 PM21 °FPartly sunny.8 mph86%29.95 "HgN/A
4:00 PM21 °FPartly sunny.8 mph86%29.95 "HgN/A
3:30 PM21 °FPartly sunny.6 mph86%29.95 "HgN/A
3:00 PM21 °FSnow flurries. Partly sunny.6 mph80%29.95 "Hg6 mi
2:30 PM21 °FPartly sunny.8 mph80%29.95 "HgN/A
2:00 PM21 °FPartly sunny.6 mph80%29.95 "HgN/A
1:30 PM21 °FPartly sunny.6 mph80%29.95 "HgN/A
1:00 PM21 °FPartly sunny.6 mph80%29.95 "HgN/A
12:30 PM19 °FPartly sunny.8 mph86%29.95 "HgN/A
12:00 PM19 °FSnow flurries. Partly sunny.6 mph86%29.95 "HgN/A
11:30 AM19 °FSnow flurries. Partly sunny.8 mph86%29.95 "HgN/A
11:00 AM19 °FSnow flurries. Partly sunny.8 mph86%29.95 "HgN/A
10:30 AM19 °FSnow flurries. Partly sunny.8 mph86%29.98 "HgN/A
10:00 AM18 °FSnow flurries. Partly sunny.8 mph86%29.98 "HgN/A
9:30 AM18 °FSnow flurries. Partly sunny.6 mph93%29.98 "HgN/A
9:00 AM18 °FSnow flurries. Partly sunny.8 mph86%29.95 "HgN/A
8:30 AM18 °FSnow flurries. Passing clouds.6 mph86%29.95 "HgN/A
8:00 AM18 °FSnow flurries. Passing clouds.8 mph86%29.95 "Hg4 mi
7:30 AM18 °FSnow flurries. Partly cloudy.8 mph86%29.95 "Hg6 mi
7:00 AM16 °FSnow flurries. Partly cloudy.8 mph93%29.95 "Hg3 mi
6:00 AM16 °FSnow flurries. Partly cloudy.6 mph93%29.98 "Hg1 mi
5:30 AM16 °FSnow flurries. Partly cloudy.8 mph93%29.98 "Hg2 mi
4:30 AM16 °FPartly cloudy.8 mph93%29.98 "HgN/A
4:00 AM16 °FPassing clouds.6 mph93%29.98 "HgN/A
3:30 AM16 °FPassing clouds.8 mph93%30.01 "HgN/A
3:00 AM16 °FLow clouds.6 mph93%30.01 "HgN/A
2:30 AM16 °FPassing clouds.6 mph93%30.01 "HgN/A
2:00 AM16 °FPassing clouds.8 mph93%30.01 "HgN/A
Weather by CustomWeather, © 2016

See weather overviewHow to use our weather pages